GFSSW_250_spd_087.txt.gz
Wind_Speed
26 13 8 16 32 41 44 43 45 49 51 50 51 56 63 70 76 81 88 94 98 103 101 104 105 102 105 102 93 92 87 89 90 90 97 93 87 88 81 81 86 84 82 79 76
54 33 18 7 15 30 38 40 40 39 44 49 51 52 53 60 67 72 78 83 87 91 96 99 102 105 113 104 101 100 98 98 106 99 101 102 96 90 90 84 86 86 87 89 81
63 58 45 23 10 11 23 32 36 38 38 40 46 50 52 53 56 64 70 74 78 83 88 90 94 97 107 110 109 109 102 106 107 105 103 111 97 108 95 86 95 94 92 94 93
58 57 57 49 37 18 6 15 26 33 36 37 39 44 48 49 49 54 60 67 72 74 77 80 83 91 98 107 111 110 112 113 115 114 110 116 115 105 103 99 108 99 97 100 98
49 51 50 49 47 46 36 22 6 14 25 33 37 39 41 47 49 50 51 55 62 68 73 76 78 81 88 95 100 101 108 111 115 122 121 120 118 117 114 119 115 116 110 107 97
40 42 43 43 42 40 39 39 35 24 13 4 13 25 35 41 45 51 55 56 57 59 62 67 73 78 81 87 89 94 100 104 107 113 119 116 114 118 118 125 121 119 117 118 113
34 35 35 36 36 35 34 33 33 32 31 26 15 7 2 10 22 35 46 53 56 60 62 64 65 67 72 77 79 84 87 92 99 107 110 116 114 111 113 121 123 120 120 117 120
30 28 28 28 28 30 30 29 28 27 27 26 25 21 15 8 2 5 11 18 30 45 55 62 65 68 70 72 74 76 79 85 93 99 100 102 95 104 110 118 121 122 118 113 110
28 27 25 23 22 22 24 24 24 24 23 21 22 21 18 16 13 8 5 0 6 12 17 25 34 49 63 72 75 77 79 81 85 89 89 91 88 95 102 106 105 109 118 121 117
28 26 25 23 20 19 17 17 19 19 20 18 19 19 19 15 13 11 10 7 6 5 4 4 12 18 23 33 45 59 73 82 85 92 87 87 85 90 95 100 101 101 106 113 116
28 27 26 24 22 20 19 16 15 16 16 15 14 16 18 19 17 15 13 10 7 7 6 6 8 10 11 14 19 27 34 45 62 78 87 92 90 92 96 96 97 97 98 99 102
30 27 28 26 25 24 23 19 18 15 15 13 13 14 16 16 17 17 15 15 13 12 13 11 10 12 15 17 18 19 23 31 37 46 51 60 73 87 95 99 102 102 105 105 106
34 33 32 29 28 27 26 27 23 21 18 19 13 15 16 18 17 18 17 17 16 15 16 19 17 18 19 20 19 22 24 26 28 36 38 46 48 54 62 74 90 98 103 107 105
35 36 38 36 34 32 30 29 30 26 22 21 19 18 19 19 20 22 20 19 19 19 19 25 23 23 23 29 24 27 29 30 32 32 34 43 37 48 58 64 67 73 84 88 96
43 39 39 38 40 39 36 32 30 32 29 27 24 24 22 22 21 22 26 25 22 23 23 27 30 29 30 30 31 27 35 36 36 36 33 35 39 43 53 60 70 71 71 71 74
41 42 41 42 42 42 43 40 36 32 31 31 29 30 28 22 23 23 27 27 25 23 24 31 32 35 36 37 36 34 36 38 38 38 37 38 40 33 46 53 65 71 74 77 78
46 46 46 48 47 46 44 44 42 39 33 33 32 33 33 30 26 27 29 28 30 29 29 32 37 37 37 39 43 42 43 41 42 43 43 45 38 33 46 58 63 68 72 78 80
53 49 52 51 49 50 48 46 46 44 38 34 33 35 35 37 35 30 31 31 29 29 30 33 38 43 45 46 45 47 47 48 43 44 47 53 42 41 47 53 59 64 68 72 77
56 56 57 60 50 52 49 50 48 46 41 39 37 36 35 39 38 35 36 36 32 32 31 33 35 40 48 50 51 52 52 53 53 53 49 52 51 47 52 55 60 64 70 72 76
61 58 58 61 50 52 53 52 52 47 45 43 41 40 39 38 39 39 40 40 38 35 35 36 36 41 47 51 54 56 55 57 60 58 58 58 59 55 54 61 67 67 71 76 81
59 61 66 60 49 50 53 53 57 53 48 46 45 43 42 43 43 41 40 43 41 40 40 39 40 42 47 53 57 61 62 62 64 65 69 65 62 59 63 61 63 73 77 76 79
58 64 63 52 49 47 52 57 58 59 56 52 50 48 46 46 45 45 47 46 46 43 43 44 44 45 50 55 59 63 67 68 68 66 72 76 64 69 68 68 68 68 67 65 65
60 64 54 52 49 46 50 58 59 60 61 59 56 53 50 49 49 49 49 50 47 47 46 47 48 50 53 58 61 66 70 72 73 71 75 80 77 72 70 70 64 56 60 59 57
61 62 52 46 47 45 47 55 59 62 62 62 60 57 56 54 53 50 52 51 50 49 48 50 50 54 56 60 63 69 74 77 77 78 77 84 76 75 75 61 52 50 52 51 50
61 60 53 46 42 44 44 52 59 63 65 64 61 60 58 57 56 55 53 53 53 52 51 52 52 55 61 63 66 71 73 77 80 84 81 85 77 76 66 54 46 45 47 47 44
58 58 54 50 47 45 44 49 60 64 66 65 62 62 62 60 59 58 55 53 54 55 55 55 55 58 65 66 70 73 76 79 85 82 86 80 75 74 58 49 47 44 44 46 43
59 56 52 51 47 49 50 49 55 66 68 65 64 62 63 62 63 60 55 55 55 57 58 58 60 63 66 69 73 76 79 83 85 83 87 76 75 62 52 43 40 40 39 38 40

GFSSW_250_spd_093.txt.gz
Wind_Speed
46 23 8 15 27 35 46 48 51 49 49 54 57 63 66 80 87 91 91 92 93 91 92 87 89 91 89 91 89 90 86 87 88 91 89 89 88 87 83 83 76 78 76 77 76
53 45 22 3 12 27 41 44 44 47 46 46 48 54 59 62 73 82 88 89 91 91 89 91 89 91 90 92 90 89 88 84 90 88 87 91 89 86 84 88 90 86 82 83 78
44 45 45 29 9 10 27 40 41 42 44 45 45 46 50 56 61 69 77 85 90 92 94 95 94 95 96 91 92 94 100 97 97 94 97 99 101 96 85 83 93 87 86 88 82
39 38 38 39 35 16 4 22 35 36 39 42 44 45 47 49 54 60 68 74 79 89 93 98 101 100 99 98 99 99 100 100 98 96 99 101 102 100 101 92 97 94 89 95 88
34 33 31 31 30 31 25 4 15 27 34 37 40 42 46 48 50 51 55 61 66 69 78 85 86 100 104 105 104 103 104 102 100 101 100 103 104 99 103 102 100 98 95 94 100
27 28 28 27 24 23 23 22 20 4 18 29 35 38 41 44 47 51 55 56 58 60 64 69 73 76 88 95 97 100 107 106 106 107 107 105 109 109 106 104 106 103 106 105 102
22 22 22 21 22 20 17 17 16 16 17 10 8 24 35 41 44 46 49 52 55 59 62 63 66 68 72 77 84 85 88 93 100 104 105 105 104 106 116 120 118 116 110 111 115
18 17 18 18 17 16 16 13 11 10 9 9 10 9 6 10 25 38 47 50 52 53 58 62 65 67 68 68 70 74 79 83 88 91 93 94 93 101 103 104 108 109 110 112 110
17 15 15 14 15 14 13 12 12 11 7 5 4 3 3 2 2 3 13 21 31 41 49 55 59 60 62 65 68 68 69 72 79 83 86 88 87 93 96 96 99 103 105 104 105
19 17 14 13 13 14 15 14 12 12 11 9 6 4 4 4 4 3 4 6 8 12 15 21 28 35 43 52 59 63 67 71 74 74 73 74 76 81 85 88 90 92 95 98 101
20 19 19 18 15 15 17 18 17 16 14 13 14 14 12 11 10 11 9 10 11 12 14 14 15 14 19 23 26 33 40 46 53 61 63 68 73 80 82 85 90 92 93 95 98
23 23 22 22 21 22 22 21 21 22 19 20 18 19 20 18 19 18 16 16 16 16 18 19 15 19 19 18 20 23 25 29 34 36 39 46 50 55 62 68 74 83 91 96 96
33 34 30 27 27 26 27 27 28 28 28 24 26 24 28 25 26 27 23 23 24 23 23 26 17 22 24 24 26 23 26 28 29 31 31 32 31 35 39 43 51 56 63 69 73
40 40 39 37 33 32 31 30 29 33 35 33 31 32 33 33 33 32 31 31 31 30 30 32 27 28 30 33 30 30 29 30 32 33 33 32 29 37 42 44 46 48 49 51 56
42 46 45 42 42 40 35 39 35 36 35 36 40 39 38 39 40 38 37 38 38 35 36 36 33 32 36 36 35 36 33 33 34 34 33 37 37 36 41 46 51 53 54 54 52
43 47 48 46 45 45 44 41 41 39 38 39 40 43 48 45 46 45 45 44 41 41 41 42 38 39 40 40 40 40 37 34 35 35 34 39 40 37 41 48 51 56 58 59 58
43 45 49 49 47 46 47 46 44 44 42 43 47 47 48 54 53 52 52 50 45 44 46 47 44 44 43 44 45 45 45 39 37 38 37 41 40 41 47 49 51 54 58 62 64
43 45 47 47 49 48 46 46 47 48 51 52 52 53 54 52 60 58 56 57 53 48 49 50 51 48 45 45 48 50 50 47 41 43 43 44 42 47 53 56 56 59 60 59 57
44 42 44 47 48 49 48 48 49 51 53 53 54 54 57 58 57 65 60 61 59 57 54 53 53 53 50 49 50 52 54 52 49 47 42 45 47 50 56 59 63 63 61 60 62
43 40 42 46 47 48 49 50 51 53 53 53 55 57 60 63 60 65 65 62 65 63 62 57 55 55 55 54 55 56 56 56 56 52 48 51 51 54 58 65 65 63 65 67 67
40 40 41 46 46 49 51 51 48 51 53 55 58 63 61 56 58 63 67 64 67 68 68 63 58 58 57 58 58 59 59 61 62 60 58 57 58 60 65 69 69 69 71 71 72
40 39 40 43 48 49 50 50 51 50 52 55 60 62 56 51 56 61 68 66 66 69 70 68 61 58 59 60 61 61 62 65 65 64 64 64 58 69 72 72 73 73 74 75 76
42 40 43 44 44 46 47 48 49 52 53 57 59 62 54 49 52 61 68 71 69 68 69 68 65 63 62 65 66 64 66 67 68 67 65 66 67 71 74 75 78 77 79 81 81
46 44 42 42 44 45 46 47 50 51 52 56 59 56 52 49 50 59 70 73 73 74 72 71 68 67 66 67 68 68 67 69 69 67 68 69 70 81 77 77 80 83 85 85 85
51 43 43 39 43 45 45 47 48 50 52 53 55 53 51 50 51 55 64 77 78 77 78 79 71 71 70 71 69 67 68 71 69 70 70 74 75 79 80 83 87 90 88 89 85
54 51 45 45 40 46 48 50 50 52 54 56 53 50 51 52 53 54 60 69 80 83 81 79 73 71 68 72 69 66 71 70 71 73 73 76 79 78 81 86 90 91 88 86 87
57 51 46 44 43 42 44 49 51 49 53 52 49 48 52 51 54 57 59 64 72 81 85 81 79 74 69 73 69 70 71 70 71 73 75 79 79 80 85 87 90 88 83 85 77

GFSSW_250_spd_096.txt.gz
Wind_Speed
56 39 25 9 14 26 32 40 48 50 50 51 58 68 71 83 87 89 93 95 93 91 89 84 86 85 82 83 88 86 76 85 83 85 87 81 82 78 79 78 73 73 72 72 72
47 48 31 13 3 15 24 30 40 45 46 44 46 56 65 70 79 88 88 92 96 92 90 89 87 91 89 85 84 87 84 83 86 91 89 89 83 83 84 84 83 81 82 81 81
40 40 41 30 8 6 15 24 34 39 41 41 41 44 53 60 63 71 87 91 94 95 92 91 93 93 94 93 90 85 90 90 88 89 91 86 86 91 88 89 94 88 86 86 84
33 34 34 34 32 12 5 15 27 35 37 40 40 40 42 50 56 61 67 77 87 92 93 94 92 95 97 94 94 92 91 89 93 93 89 94 90 92 85 93 87 92 94 92 91
24 27 27 28 27 29 17 5 18 28 32 34 38 40 41 43 47 53 61 68 72 79 90 93 95 94 98 96 96 96 98 96 92 96 97 97 100 99 94 95 96 88 89 88 87
18 19 20 21 22 20 21 19 6 14 25 32 34 37 41 43 45 46 50 55 62 66 70 81 91 95 95 98 97 97 98 98 99 97 96 99 100 101 101 106 100 100 99 101 102
17 12 14 14 15 15 14 13 13 11 5 15 28 33 36 38 42 46 49 51 52 56 61 67 75 83 89 92 95 97 96 97 102 103 103 104 105 104 106 104 109 107 107 105 106
20 16 7 9 9 9 9 9 8 6 6 7 7 9 19 33 39 42 45 48 51 55 58 60 62 66 73 82 86 88 93 99 104 105 105 110 112 113 114 114 111 112 113 113 110
21 19 16 9 7 6 6 6 6 5 4 2 2 5 5 7 10 21 33 43 49 51 53 56 59 63 65 67 70 72 75 79 83 89 91 92 99 108 110 106 104 104 108 110 111
23 22 20 17 15 13 11 9 10 10 7 7 7 8 7 7 7 9 9 14 21 31 42 51 56 58 58 61 65 69 73 76 77 76 76 77 80 86 93 100 99 98 101 104 106
26 25 26 23 20 18 16 16 16 15 15 15 14 14 15 14 15 15 12 13 13 14 16 20 24 28 34 49 55 60 66 70 71 70 72 76 77 78 80 82 85 88 91 91 93
27 32 28 29 27 25 24 22 21 21 22 22 22 20 21 21 21 22 21 20 19 19 22 21 20 19 23 24 25 27 31 36 40 44 46 56 57 62 66 67 71 73 75 78 79
32 29 33 34 34 33 31 29 27 28 28 29 29 28 29 26 25 27 29 29 26 28 27 27 27 23 26 29 27 26 27 25 28 27 30 30 33 37 40 42 44 48 51 55 55
37 39 35 37 41 40 39 38 37 34 31 33 34 35 35 35 34 32 33 33 34 35 34 35 33 32 30 33 32 33 32 33 32 33 34 33 34 39 42 44 48 49 50 49 51
41 44 44 40 42 44 47 47 44 42 38 36 39 37 38 40 42 41 41 39 39 38 40 43 42 40 40 39 36 41 41 39 38 38 38 41 37 44 45 49 51 51 51 51 54
45 46 45 42 45 46 45 48 49 48 48 47 47 43 41 42 43 43 47 48 48 47 47 50 48 47 46 45 45 44 46 44 43 44 42 46 40 44 48 50 54 52 52 55 56
45 47 49 51 42 50 50 48 48 48 49 54 51 51 49 47 46 46 47 48 53 55 54 54 51 52 53 51 51 50 50 50 47 48 46 48 47 51 52 53 55 57 58 60 62
50 48 51 55 39 45 51 51 52 52 49 46 53 55 54 53 51 51 52 54 55 55 61 61 57 57 56 57 57 55 54 54 52 53 50 50 53 56 53 60 60 60 63 63 64
47 48 48 51 39 40 48 48 50 52 54 51 49 52 56 57 57 58 58 59 60 62 61 66 67 63 61 61 60 61 59 58 56 55 53 56 55 56 56 61 61 62 63 64 66
46 48 48 46 43 40 44 46 46 49 53 56 54 53 53 57 60 62 62 63 63 65 66 66 70 73 68 65 64 65 63 62 63 59 56 57 58 60 60 65 64 65 65 68 70
45 47 49 50 46 42 43 44 47 52 53 55 56 57 57 58 60 63 65 66 66 68 70 71 72 74 74 70 69 65 65 65 65 65 63 62 62 62 64 66 65 67 70 73 74
46 45 48 45 46 39 44 46 48 51 53 56 56 56 57 58 62 63 66 68 69 68 67 69 71 72 73 74 74 69 68 68 66 65 66 65 63 66 69 71 70 73 74 76 78
41 42 43 43 45 43 43 47 48 49 52 54 57 59 59 59 60 63 66 68 67 62 63 67 70 73 70 68 74 72 72 70 69 68 65 69 68 71 72 76 75 77 78 81 84
43 44 45 44 45 43 42 45 45 50 51 52 54 56 58 60 62 63 67 66 62 58 61 66 70 74 76 76 74 75 75 74 74 71 72 71 72 76 80 76 78 81 83 86 88
45 45 45 44 45 46 43 41 46 46 49 49 49 53 55 56 60 64 65 64 59 58 59 64 66 75 78 77 79 79 76 76 76 75 74 75 76 81 80 80 83 85 87 90 92
47 47 46 46 47 47 45 43 43 49 47 52 55 56 57 59 61 65 66 63 60 59 60 61 65 74 77 80 81 80 78 80 78 78 76 77 78 82 81 83 85 90 91 90 91
47 49 49 48 46 48 45 42 39 45 50 49 52 58 61 61 63 65 64 62 60 61 61 62 64 68 75 82 81 78 79 78 77 78 77 78 80 82 83 85 88 91 87 88 90

GFSSW_250_spd_102.txt.gz
Wind_Speed
45 48 51 36 18 7 10 26 40 54 62 63 67 72 75 80 85 90 97 97 98 95 95 92 88 86 83 84 81 81 81 80 78 77 78 79 77 72 76 75 70 64 69 65 60
35 39 41 43 24 10 6 13 27 43 53 60 62 66 73 75 79 85 85 96 98 97 97 97 93 87 83 81 81 82 76 81 83 84 85 81 79 76 73 81 73 74 75 75 70
30 30 32 34 34 13 7 13 20 30 40 54 58 60 64 70 74 81 84 86 94 96 97 97 98 95 88 85 83 83 83 80 80 85 81 84 85 85 77 79 77 78 80 79 76
28 23 26 25 27 25 4 11 18 23 32 46 51 56 57 61 62 75 82 83 88 93 97 100 101 98 95 92 89 85 85 84 90 83 73 81 84 83 84 79 79 82 84 84 82
23 21 15 23 19 20 19 1 14 20 29 41 45 50 52 51 57 62 70 80 88 86 91 97 100 101 101 100 96 92 90 91 88 87 90 91 83 84 86 84 81 75 75 79 85
23 18 15 11 19 16 14 16 1 16 24 32 40 43 47 46 54 55 63 68 75 85 85 90 95 98 101 101 101 101 99 95 93 96 88 97 94 90 88 86 85 90 90 89 89
20 18 17 13 7 16 17 10 11 3 16 26 33 38 40 47 46 49 52 57 64 72 79 86 87 93 100 104 102 105 103 102 100 100 97 96 92 93 101 99 95 92 99 99 97
18 19 17 16 13 7 10 16 5 6 6 16 25 32 35 40 45 46 48 51 56 62 71 78 83 89 91 96 96 105 108 107 108 109 109 104 99 99 99 101 96 101 98 94 99
23 18 19 18 18 16 12 9 9 11 3 3 9 24 31 34 38 42 46 48 50 53 59 66 72 75 82 87 95 98 102 102 108 112 112 107 107 111 109 101 100 100 101 105 103
23 22 19 19 22 21 19 19 14 11 12 9 5 6 10 22 34 39 40 44 48 51 54 56 60 66 70 73 76 83 94 100 102 106 106 107 106 109 110 106 104 107 106 104 105
23 24 23 22 23 25 24 23 25 21 18 15 14 14 13 13 14 17 25 39 47 48 50 54 56 59 63 67 69 74 76 79 88 95 98 99 101 100 102 105 101 104 104 104 105
25 24 29 28 25 26 24 26 28 31 28 26 25 22 19 22 17 15 16 17 20 25 35 47 55 57 58 61 65 68 69 72 75 79 84 89 93 100 100 98 97 96 95 100 104
29 26 29 34 29 29 33 29 30 33 33 35 33 32 29 28 25 27 27 26 25 23 22 24 30 33 44 53 61 65 66 68 70 72 72 75 80 83 85 86 89 92 94 96 98
32 32 31 35 36 34 32 36 36 35 33 38 42 41 39 38 34 32 32 27 25 33 32 28 28 26 29 31 36 41 48 52 58 62 63 68 70 74 77 81 83 85 87 88 89
31 35 36 35 37 41 40 39 40 38 40 36 44 45 46 45 45 45 42 40 38 36 33 31 36 35 35 35 33 32 38 38 39 40 40 41 44 44 52 53 57 62 63 66 69
31 33 37 37 38 42 42 38 41 43 44 44 42 51 51 51 51 52 52 51 49 45 41 39 40 41 41 41 42 41 39 39 42 43 40 44 46 45 49 50 50 49 48 50 49
30 31 33 34 36 39 44 46 45 44 45 47 47 51 55 60 61 56 54 54 55 56 55 52 49 49 49 45 47 48 47 42 44 48 47 53 53 52 56 56 53 52 52 52 49
32 30 30 33 38 37 41 44 45 46 46 48 49 50 61 59 61 64 61 60 59 56 56 57 60 62 61 59 57 57 57 57 57 56 54 55 55 56 62 62 60 62 57 55 56
35 29 30 31 38 37 39 41 44 47 48 50 54 49 51 67 64 59 63 65 65 63 63 63 61 62 61 61 63 66 66 70 66 64 63 64 63 64 66 68 65 65 66 64 66
38 33 31 32 36 40 39 40 43 46 46 46 51 48 47 58 68 68 62 62 64 67 69 71 67 71 72 67 65 66 69 68 68 67 68 67 70 70 73 73 72 70 71 70 70
42 40 36 34 37 41 45 45 46 45 45 43 46 49 48 54 59 69 74 71 65 64 64 68 69 76 76 76 75 74 72 72 74 71 69 68 67 73 73 77 79 79 78 75 75
36 45 39 40 38 41 44 47 49 47 45 45 42 44 42 48 56 60 68 74 77 74 68 66 68 68 73 75 76 79 79 77 78 75 76 73 67 76 77 80 80 83 85 82 80
36 40 45 43 42 45 44 47 45 47 45 45 48 49 45 45 54 58 61 65 68 75 74 77 70 70 72 75 76 74 77 79 81 81 78 85 75 81 81 83 84 84 86 86 85
39 40 43 46 46 41 39 45 44 46 48 48 48 48 46 45 46 61 63 65 67 69 72 73 75 76 77 81 80 79 80 83 85 84 84 84 84 85 85 86 84 85 85 85 85
42 40 44 45 44 42 44 42 46 44 48 49 50 48 46 47 46 47 60 69 68 70 72 75 75 78 79 81 82 82 83 85 87 85 87 85 86 85 85 84 84 83 84 81 80
44 42 43 45 45 42 43 45 45 48 48 51 52 50 52 49 48 47 46 57 66 69 71 71 70 76 77 78 80 80 83 85 85 84 84 82 80 83 79 78 79 78 76 81 83
42 44 43 47 46 45 43 48 45 48 49 51 53 55 53 51 49 49 49 48 54 64 66 64 69 72 69 77 77 72 79 80 81 81 80 76 71 72 71 73 75 74 75 78 77

GFSSW_250_spd_105.txt.gz
Wind_Speed
39 40 48 50 42 24 15 3 22 43 62 72 77 84 89 95 102 101 105 103 100 99 94 93 92 90 86 85 83 84 78 73 75 73 72 75 75 72 69 66 65 62 59 58 58
35 31 36 44 44 28 13 7 10 26 46 62 70 75 81 86 93 100 99 100 102 98 97 95 94 92 90 90 86 83 81 80 81 79 78 80 77 74 71 68 69 69 66 65 63
27 26 26 34 37 36 17 5 12 20 34 49 64 70 73 80 85 92 96 99 101 102 98 97 95 93 92 89 87 86 81 84 84 84 82 81 79 77 76 74 73 78 73 72 71
22 21 20 20 29 30 28 8 7 17 27 40 55 63 66 71 76 82 90 97 99 101 101 100 98 97 95 92 92 87 85 85 84 83 84 83 83 84 82 83 81 79 80 81 79
22 15 16 14 15 24 24 21 7 17 24 33 45 55 59 61 71 75 81 87 93 98 102 101 98 97 96 96 95 91 90 86 86 87 84 82 81 85 81 84 83 81 82 82 83
21 15 12 12 9 10 20 20 14 12 21 31 40 51 56 58 64 72 75 81 84 89 97 96 97 101 100 98 96 96 94 90 86 84 85 83 83 88 84 83 84 81 76 78 81
18 18 13 12 10 6 4 14 14 8 14 22 33 46 56 56 62 63 71 75 79 84 86 88 93 95 98 99 99 101 99 97 94 89 91 93 87 87 93 92 87 78 76 76 82
22 19 19 13 14 10 7 4 8 7 5 15 24 35 46 54 58 58 61 65 71 75 82 85 85 85 91 99 102 102 103 103 104 106 102 97 91 98 96 97 98 99 99 99 96
25 23 22 20 18 17 13 12 9 3 1 2 17 27 39 42 49 52 54 56 58 64 70 79 86 88 87 90 95 98 101 105 110 110 110 107 101 102 103 102 100 97 93 97 98
31 25 23 26 23 20 20 18 18 14 12 8 7 17 31 38 44 48 51 52 52 54 58 63 70 79 86 90 90 92 95 101 105 109 111 107 105 107 109 109 107 107 106 107 106
34 27 28 25 28 25 23 23 21 22 19 19 14 16 18 26 37 40 45 49 52 54 56 58 59 65 72 80 89 94 95 94 95 100 105 105 104 104 105 109 107 107 109 110 113
39 30 28 30 28 32 28 24 27 25 27 25 25 23 21 22 25 25 35 46 48 51 52 53 56 62 64 66 71 79 86 90 92 95 98 99 97 98 103 105 108 108 106 107 106
40 35 29 34 33 33 35 31 26 30 29 31 33 31 30 27 26 27 28 27 30 31 40 50 59 58 58 60 62 64 67 70 75 82 83 85 90 92 97 101 104 106 106 104 104
51 36 27 29 38 37 35 38 36 34 32 32 36 38 37 36 36 34 36 32 33 31 32 32 33 34 39 47 54 61 63 65 66 68 68 72 70 74 80 83 86 88 92 99 101
68 46 32 28 39 39 40 40 42 37 37 37 34 37 40 44 43 41 41 43 40 40 37 37 36 30 29 34 33 34 40 45 48 53 54 62 64 63 72 75 79 81 82 83 86
67 48 32 34 30 46 44 43 44 46 44 41 42 40 37 45 47 50 49 47 46 45 42 44 42 43 43 41 42 39 36 32 34 33 30 37 43 43 52 57 62 66 62 59 62
63 42 35 35 31 37 46 44 46 47 46 47 46 46 46 45 50 51 53 55 55 53 51 50 50 49 48 48 48 50 53 50 48 47 42 44 39 42 48 51 48 56 55 56 52
67 42 37 35 34 34 44 40 46 49 49 51 51 51 53 48 50 53 60 59 60 62 60 59 57 57 55 55 57 57 55 54 53 52 51 49 47 49 55 57 58 62 55 56 53
65 45 36 37 34 33 42 36 43 46 46 51 56 55 53 52 51 50 56 61 67 64 61 61 62 65 65 65 62 61 61 61 59 58 57 56 57 60 65 57 61 66 62 60 60
65 42 38 39 35 36 38 38 37 43 48 48 50 48 48 54 58 56 56 57 68 71 70 68 66 67 67 64 66 68 71 71 69 67 66 62 63 67 71 69 67 73 73 67 68
61 38 39 41 35 37 37 40 39 44 44 48 48 50 50 52 59 60 57 54 57 69 76 73 77 80 76 74 75 73 70 73 72 67 66 65 67 70 73 73 69 71 72 75 75
50 34 41 43 39 37 36 38 41 44 44 47 48 46 46 49 49 54 57 51 52 65 73 73 72 74 80 83 80 80 81 82 81 77 74 71 67 77 80 74 76 76 76 77 78
38 32 44 39 41 37 37 40 43 43 46 44 46 48 48 47 47 47 52 47 50 56 66 74 77 74 74 77 74 77 80 81 81 80 77 77 72 83 88 83 80 82 83 83 80
33 34 45 39 42 39 41 42 46 43 44 45 47 48 46 47 48 50 50 44 46 52 59 67 69 78 79 82 82 79 77 78 79 78 80 78 77 79 83 85 85 86 87 89 90
32 37 45 43 41 46 47 48 47 41 42 40 45 47 50 49 50 52 51 50 46 47 51 63 65 70 73 77 81 81 83 85 84 83 82 80 79 81 85 87 88 88 91 94 93
34 43 47 44 44 50 48 46 48 43 46 43 42 48 50 47 48 49 51 51 51 48 48 51 59 73 72 76 75 77 79 84 84 85 85 86 80 87 89 89 91 89 90 91 91
39 45 44 43 45 50 50 46 49 44 45 44 44 41 45 54 52 53 54 55 56 54 49 49 51 54 64 79 80 78 83 84 86 88 88 87 86 82 84 87 89 90 88 87 82